Weather Roundup
Issued by NWS Chicago, IL

Home | Current Version | Previous Version | Text Only | Print | Product List | Glossary Off
Versions: 1 2 3 4 5 6 7 8 9 10 11 12 13 14 15 16 17 18 19 20 21 22 23 24 25 26 27 28 29 30 31 32 33 34 35 36 37 38 39 40 41 42 43 44 45 46 47 48 49 50

000
NZUS59 KLOT 200512
HRRLOT

CHICAGO AREA WEATHER ROUNDUP
NATIONAL WEATHER SERVICE CHICAGO/ROMEOVILLE IL
1100 PM CST SUN FEB 19 2017

NOTE: "FAIR" INDICATES FEW OR NO CLOUDS BELOW 12,000 FEET WITH NO
SIGNIFICANT WEATHER AND/OR OBSTRUCTIONS TO VISIBILITY.

* THESE STATIONS ARE NOT UNDER NWS QUALITY CONTROL. THEY ALSO MAY NOT
  REPORT WEATHER SUCH AS PRECIPITATION OR FOG.

ILZ005-006-012>014-019>023-200600-
NORTHEAST ILLINOIS

CITY           SKY/WX    TMP DP  RH WIND       PRES   REMARKS
OHARE          CLOUDY    46  30  53 SE3       30.11R
MIDWAY         MOCLDY    49  33  54 SE5       30.11R
AURORA         CLOUDY    48  41  76 SE7       30.10R
LANSING*       PTCLDY    46  41  84 CALM      30.13R
JOLIET*        CLOUDY    51  43  74 SE3       30.11S
WAUKEGAN       CLOUDY    36  32  85 SE3       30.11R
DUPAGE AIRPORT PTCLDY    44  35  70 CALM      30.10R
WHEELING       CLOUDY    41  31  67 CALM      30.12R
KANKAKEE*      PTCLDY    44  39  82 CALM      30.13R
MORRIS*        PTCLDY    49  41  73 CALM      30.09S
LEWIS AIRPORT* CLOUDY    48  44  85 S8        30.11S
NORTHERLY ISL    N/A     42  31  65 SE1         N/A
$$

WIZ051-052-058>065-066-070>072-200600-
SOUTHEAST WISCONSIN

CITY           SKY/WX    TMP DP  RH WIND       PRES   REMARKS
MILWAUKEE      CLOUDY    39  32  76 CALM      30.13R
KENOSHA*       CLOUDY    35  31  85 E3        30.12R
RACINE*        CLOUDY    38  32  79 CALM      30.13S
WAUKESHA         N/A     36  30  80 CALM      30.13R
WEST BEND      PTCLDY    32  30  93 CALM      30.12S
$$

INZ001>003-010>013-019-020-200600-
NORTHWEST INDIANA

CITY           SKY/WX    TMP DP  RH WIND       PRES   REMARKS
GARY*          PTCLDY    42  37  82 SE3       30.13R
MICHIGAN CITY* NOT AVBL
RENSSELAER*    NOT AVBL
VALPARAISO     CLOUDY    43  35  73 CALM      30.14R
$$

LMZ740>746-200600-
SOUTHERN LAKE MICHIGAN

STATION/POSITION TIME  SKY/WX   TEMP WIND        PRES    VSBY
                                AIR  DIR/SP/G
                 (UTC)          (F)  (DEG/KT/KT) (MB)    (MI)
HARRISON CRIB    0440            44  160/  5/  6   N/A
BURNHAM HARBOR   0500            42  130/  2/  3   N/A
CALUMET HARBOR   0448            42   CALM  /  2 1019.5R
BURNS HARBOR     0502            56  130/  6/ 10 1020.7
MICHIGAN CITY    0440            52  100/  8/  9   N/A
$$

ABBREVIATIONS USED IN REMARKS
   TC - TEMPERATURE IN CELSIUS
  WCI - WIND CHILL INDEX
   HX - HEAT INDEX
  VSB - VISIBILITY
$$




USA.gov is the U.S. government's official web portal to all federal, state and local government web resources and services.